Weather History for KRXE - November, 2013

Change the Weather History Date:

Thursday, November 7, 2013

  Actual Average Record
Temperature  
Mean Temperature 41 °F 35 °F  
Max Temperature 47 °F 46 °F 71 °F (1999)
Min Temperature 35 °F 25 °F 5 °F (2003)
Degree Days  
Heating Degree Days 24 30  
Month to date heating degree days 204 198  
Since 1 July heating degree days 1045 1185  
Cooling Degree Days 0 0  
Month to date cooling degree days 0 0  
Year to date cooling degree days 452 208  
Moisture  
Dew Point 33 °F    
Average Humidity 75    
Maximum Humidity 92    
Minimum Humidity 58    
Precipitation  
Precipitation 0.12 in 0.04 in 0.33 in (1987)
Month to date precipitation 0.15 0.27  
Year to date precipitation 7.50 11.26  
Sea Level Pressure  
Sea Level Pressure 30.21 in    
Wind  
Wind Speed 7 mph (SSW)    
Max Wind Speed 16 mph    
Max Gust Speed 24 mph    
Visibility 10 miles    
Events Rain    
T = Trace of Precipitation, MM = Missing Value Source: NWS Daily Summary

Daily Weather History Graph

Daily Weather History Graph

Search for Another Location

Airport or City:

Trip Planner

Search our weather history database for the weather conditions in past years. The results will help you decide how hot, cold, wet, or windy it might be!

Date:

Astronomy

Nov. 07, 2013 Rise Set
Actual Time 7:11 AM MST 5:09 PM MST
Civil Twilight 6:41 AM MST 5:40 PM MST
Nautical Twilight 6:06 AM MST 6:14 PM MST
Astronomical Twilight 5:33 AM MST 6:48 PM MST
Moon 11:25 AM MST (11/7) 9:24 PM MST (11/7)
Length of Visible Light 10h 58m
Length of Day
9h 57m
Waxing Crescent, 23% of the Moon is Illuminated
Nov 7
Waxing Crescent
Nov 9
First Quarter
Nov 17
Full
Nov 25
Last Quarter
Dec 2
New

Hourly Weather History & Observations

Time (MST) Temp. Windchill Dew Point Humidity Pressure Visibility Wind Dir Wind Speed Gust Speed Precip Events Conditions
12:53 AM 37.9 °F 32.7 °F 30.9 °F 76% 30.41 in 10.0 mi South 6.9 mph - N/A   Overcast
1:15 AM 37.0 °F 31.6 °F 30.0 °F 76% 30.35 in 10.0 mi SSW 6.9 mph - N/A   Overcast
1:53 AM 37.9 °F 32.1 °F 30.9 °F 76% 30.40 in 10.0 mi SSW 8.1 mph - N/A   Overcast
2:53 AM 37.0 °F 34.5 °F 30.0 °F 76% 30.40 in 10.0 mi South 3.5 mph - N/A   Overcast
3:53 AM 36.0 °F - 30.9 °F 82% 30.40 in 10.0 mi Calm Calm - 0.00 in Rain Light Rain
4:53 AM 37.0 °F 33.3 °F 30.9 °F 79% 30.40 in 10.0 mi WSW 4.6 mph - 0.00 in Rain Light Rain
5:53 AM 36.0 °F 33.3 °F 33.1 °F 89% 30.41 in 9.0 mi South 3.5 mph - 0.04 in Rain Light Rain
6:24 AM 37.0 °F 33.3 °F 34.0 °F 89% 30.34 in 10.0 mi South 4.6 mph - 0.02 in Rain Light Rain
6:53 AM 37.0 °F 31.6 °F 34.0 °F 89% 30.39 in 10.0 mi South 6.9 mph - 0.03 in Rain Light Rain
7:53 AM 36.0 °F 31.1 °F 33.1 °F 89% 30.38 in 10.0 mi South 5.8 mph - 0.02 in Rain Light Rain
8:53 AM 35.1 °F 30.1 °F 33.1 °F 92% 30.38 in 8.0 mi East 5.8 mph - 0.02 in Rain Light Rain
9:35 AM 36.0 °F 30.3 °F 34.0 °F 93% 30.30 in 10.0 mi ENE 6.9 mph - 0.01 in   Overcast
9:53 AM 37.0 °F 33.3 °F 34.0 °F 89% 30.35 in 10.0 mi NE 4.6 mph - 0.01 in   Overcast
10:53 AM 39.0 °F 35.7 °F 35.1 °F 86% 30.32 in 10.0 mi North 4.6 mph - N/A   Overcast
11:53 AM 43.0 °F 39.5 °F 35.1 °F 74% 30.27 in 10.0 mi SSW 5.8 mph - N/A   Overcast
12:53 PM 41.0 °F 38.0 °F 37.0 °F 86% 30.22 in 10.0 mi NW 4.6 mph - N/A   Overcast
1:53 PM 46.9 °F - 35.1 °F 63% 30.15 in 10.0 mi South 10.4 mph 18.4 mph N/A   Overcast
2:53 PM 46.0 °F 41.4 °F 34.0 °F 63% 30.12 in 10.0 mi South 9.2 mph - N/A   Overcast
3:53 PM 45.0 °F 42.6 °F 35.1 °F 68% 30.10 in 10.0 mi SW 4.6 mph - N/A   Overcast
4:53 PM 46.9 °F - 32.0 °F 56% 30.03 in 10.0 mi South 9.2 mph - N/A   Overcast
5:53 PM 45.0 °F 39.7 °F 30.9 °F 58% 29.99 in 10.0 mi South 10.4 mph - N/A   Overcast
6:53 PM 45.0 °F 39.7 °F 32.0 °F 60% 29.98 in 10.0 mi South 10.4 mph - N/A   Overcast
7:53 PM 45.0 °F 38.9 °F 32.0 °F 60% 29.95 in 10.0 mi South 12.7 mph - N/A   Overcast
8:53 PM 43.0 °F 40.3 °F 33.1 °F 68% 29.94 in 10.0 mi SSW 4.6 mph - N/A   Overcast
9:53 PM 41.0 °F 38.0 °F 33.1 °F 73% 29.91 in 10.0 mi SW 4.6 mph - N/A   Overcast
10:53 PM 44.1 °F 39.5 °F 30.9 °F 60% 29.86 in 10.0 mi SSW 8.1 mph - N/A   Overcast
11:53 PM 46.0 °F 39.3 °F 28.9 °F 51% 29.83 in 10.0 mi SSW 16.1 mph - N/A   Partly Cloudy